Location: Boiro
(42.6475°N, 8.8834°W)
Time: 20:41:22
(UTC+01:00)

ITUPSAT 1 - Visible Passes

Search period start: 21 January 2022 00:00
Search period end: 31 January 2022 00:00
Orbit: 700 x 713 km, 98.6° (Epoch: 21 January)

Date Brightness Start Highest point End Pass type
(mag) Time Alt. Az. Time Alt. Az. Time Alt. Az.
21 Jan ? 07:44:17 10° SE 07:48:22 29° ENE 07:52:28 10° N visible
23 Jan ? 07:34:57 10° ESE 07:38:44 24° ENE 07:42:30 10° NNE visible
24 Jan ? 08:17:46 10° SSE 08:22:28 60° ENE 08:27:11 10° N visible
25 Jan ? 07:25:44 10° ESE 07:29:06 19° ENE 07:32:27 10° NNE visible
26 Jan ? 08:08:12 10° SE 08:12:47 47° ENE 08:17:22 10° N visible
27 Jan ? 07:16:39 10° E 07:19:28 16° ENE 07:22:18 10° NNE visible
28 Jan ? 07:58:41 10° SE 08:03:05 38° ENE 08:07:30 10° N visible
29 Jan ? 07:07:47 10° E 07:09:52 13° ENE 07:11:57 10° NNE visible
30 Jan ? 07:49:15 10° SE 07:53:25 31° ENE 07:57:35 10° N visible
